Regional Weather Roundup
Issued by NWS Tiyan, Guam

Home | Current Version | Previous Version | Text Only | Print | Product List | Glossary On
Versions: 1 2 3 4 5 6 7 8 9 10 11 12 13 14 15 16 17 18 19 20 21 22 23 24 25 26 27 28
000
ASGM40 PGUM 210912
RWRGUM
WEATHER ROUNDUP FOR THE MARIANAS
NATIONAL WEATHER SERVICE TIYAN GU
700 PM CHST TUE FEB 21 2017

GUZ001>004-211000-
MARIANA ISLANDS-

CITY           SKY/WX    TMP DP  RH WIND       PRES   REMARKS
GUAM AIRPORT   CLEAR     81  75  83 NE7       29.98R
ANDERSEN AFB   PTCLDY    79  73  83 NE9       29.99R
ROTA AIRPORT   PTCLDY    79  73  83 NE7       29.98R
TINIAN AP      PTCLDY    82  72  69 NE10      29.97
SAIPAN AP      PTCLDY    79  75  89 NE12      29.99R

$$





USA.gov is the U.S. government's official web portal to all federal, state and local government web resources and services.